Theta_e
318 318 319 321 321 321 320 318 317 319 321 319 318 317 316 318 322 317 309 307 305 305 305 307 308 313 317 323 325 329 329 329 329 327 324 323 320 321 325 325 327 328 332 334 335 338 340 339 338
315 316 320 320 320 319 319 317 317 317 318 318 317 316 316 316 311 311 308 306 304 305 305 307 309 312 314 318 323 325 328 328 329 329 328 327 326 325 321 326 325 327 329 333 334 336 338 339 337
316 316 320 320 320 319 318 317 316 315 316 317 315 313 312 310 310 307 306 304 304 305 305 307 309 311 313 315 319 323 325 327 329 329 328 328 328 327 326 326 326 325 327 330 333 335 338 336 336
317 319 319 319 318 317 316 314 314 315 314 316 314 311 308 306 306 305 304 304 304 305 305 307 308 310 312 314 315 318 322 325 327 326 328 326 327 325 326 325 325 326 326 328 332 333 335 337 336
317 319 319 318 317 315 313 312 313 313 314 315 315 311 309 306 305 304 304 303 304 305 305 306 307 309 312 313 315 318 321 323 324 324 325 325 324 324 324 324 324 325 325 325 329 333 334 333 335
317 318 319 318 316 314 312 311 311 311 312 312 312 311 308 305 303 303 303 303 304 304 305 306 306 308 310 312 315 317 319 321 321 321 321 321 321 322 322 322 322 323 323 324 326 328 334 335 330
318 319 318 317 316 314 312 311 310 311 310 310 311 311 308 304 302 302 302 302 303 304 304 305 306 307 309 311 313 315 318 318 320 320 320 319 319 320 319 320 320 320 320 323 325 326 326 334 332
317 317 317 317 317 314 312 310 310 310 309 308 309 309 308 303 301 301 301 301 302 303 304 304 305 307 309 311 313 315 315 317 319 320 319 319 319 319 318 318 319 318 319 320 323 326 328 329 330
314 316 317 316 315 313 311 309 308 308 307 306 306 304 302 301 300 300 300 300 300 302 303 304 305 306 308 311 313 313 315 315 317 319 319 319 318 318 317 317 317 317 318 319 321 323 326 328 327
317 317 316 314 314 311 308 308 308 307 307 307 305 303 301 299 298 298 298 298 298 300 301 303 304 305 307 310 311 312 313 312 316 317 317 317 318 317 316 316 316 315 315 316 317 319 323 324 326
315 316 314 312 310 307 306 306 307 307 306 306 304 302 300 298 297 297 296 296 296 297 299 301 303 305 306 309 311 311 313 311 311 312 312 313 314 315 314 314 313 313 313 313 316 317 319 318 318
313 312 311 308 307 306 307 306 306 306 305 303 301 299 298 297 296 295 295 295 295 295 296 297 301 304 306 308 308 309 310 308 309 309 308 309 310 311 311 312 311 310 310 310 312 315 315 316 316
310 307 306 306 306 306 306 306 305 304 303 301 300 298 297 296 296 295 295 294 294 294 294 294 298 303 305 307 307 306 308 306 306 306 306 307 307 308 309 309 310 309 309 309 311 312 314 314 315
307 306 306 305 305 306 306 305 305 302 302 301 299 298 296 295 295 295 294 293 293 293 293 293 294 298 304 305 306 305 305 305 304 303 303 304 305 305 307 308 308 308 308 308 308 311 312 312 313
305 305 305 305 305 305 305 304 302 301 302 301 299 297 296 295 295 294 293 293 292 292 292 292 292 294 298 304 303 304 302 303 302 301 301 300 301 303 305 306 307 307 307 307 305 309 310 311 312
306 306 306 304 305 303 303 306 302 302 302 301 299 298 297 295 295 294 293 293 292 292 292 292 293 293 294 298 298 300 296 297 297 299 298 299 299 300 302 302 305 306 306 306 307 306 307 308 309
306 308 307 303 303 303 303 305 302 303 302 301 299 298 297 296 295 294 293 292 292 292 291 294 295 295 295 295 295 295 294 292 292 293 295 296 298 298 299 300 301 304 305 306 306 306 307 306 305
307 307 305 305 303 303 303 304 302 302 302 300 300 299 298 296 295 294 293 293 292 292 292 294 295 295 295 295 295 296 295 294 292 291 291 293 295 296 297 298 299 300 303 305 306 305 305 304 304
306 306 304 304 302 304 304 304 303 301 301 300 300 299 298 296 295 294 294 293 292 292 291 294 294 294 294 294 295 295 295 295 294 292 291 291 292 294 294 297 298 298 300 303 305 304 303 302 301
305 305 305 303 302 303 304 304 302 301 301 301 300 298 297 296 296 295 294 293 293 292 291 293 293 293 293 293 294 294 294 294 293 291 290 290 290 291 292 295 296 297 298 299 302 304 302 302 301
305 306 305 306 302 303 304 305 302 300 299 298 298 297 296 295 295 294 293 293 293 292 291 292 293 292 292 292 292 291 292 292 291 289 289 289 289 289 290 292 295 297 297 297 299 301 303 302 301
304 303 304 303 304 307 304 312 304 302 299 298 297 297 296 294 293 293 292 292 292 292 291 291 292 292 291 290 290 290 290 290 290 290 289 288 288 287 287 289 293 294 295 295 296 298 301 302 302
307 303 304 303 304 304 303 304 305 303 301 299 298 297 295 294 293 292 291 291 291 291 292 292 292 290 289 289 289 289 289 289 289 289 289 288 287 286 286 286 289 291 293 295 295 297 298 299 302
303 303 303 303 303 308 305 303 306 303 302 301 299 296 295 293 292 292 291 291 291 292 292 291 290 288 288 288 288 288 288 288 288 287 288 288 287 286 286 285 287 288 290 293 294 295 296 297 297
302 303 317 316 310 313 301 302 304 304 302 302 299 296 294 293 292 292 291 291 291 291 290 289 288 288 287 287 287 286 286 286 286 286 286 287 287 286 285 285 285 287 289 290 292 293 293 294 296
303 303 321 318 315 309 299 304 303 301 301 301 299 296 293 292 292 291 291 291 291 289 288 288 287 286 286 285 285 284 284 284 284 284 284 284 285 285 285 285 285 285 288 288 289 292 292 292 293
303 301 300 306 296 304 305 302 300 298 298 296 295 294 293 292 292 291 291 290 289 287 286 286 286 285 284 284 283 283 282 282 282 282 282 282 283 283 284 285 285 285 286 288 288 289 290 291 291
301 298 301 305 310 310 306 302 303 299 298 296 295 294 293 292 291 291 290 288 287 286 285 285 284 283 283 282 282 281 281 281 280 280 280 280 281 281 283 284 284 284 285 287 288 287 289 290 291
300 302 300 301 303 311 311 308 301 302 300 298 296 295 293 292 291 290 289 287 285 285 284 284 283 282 281 281 281 280 280 279 279 279 278 278 279 279 281 282 284 284 284 286 287 287 287 288 289
301 301 302 311 307 299 302 306 297 300 301 299 297 295 293 292 291 289 288 286 285 284 283 282 282 281 280 279 279 279 278 278 277 277 278 278 278 279 279 280 281 283 283 285 286 287 287 287 288
Wind_Speed
13 8 4 6 3 6 9 6 9 6 8 12 14 13 18 17 12 4 15 23 26 27 26 26 31 30 29 28 25 24 18 16 17 18 22 19 24 24 25 25 26 25 23 17 20 25 21 22 20
9 7 5 3 6 7 7 9 10 9 7 4 8 9 12 15 15 6 16 24 25 25 25 24 30 29 28 27 26 22 22 20 19 21 18 16 18 21 25 25 26 25 24 21 20 25 25 24 22
7 5 2 2 6 7 9 6 8 8 6 2 6 12 8 8 15 11 18 23 24 24 24 24 28 28 27 28 26 26 22 23 22 21 20 19 17 21 20 23 25 27 24 27 21 23 26 28 25
4 5 2 11 14 14 12 7 5 8 10 8 11 11 9 13 9 16 18 22 23 24 24 25 27 28 27 26 27 25 23 22 22 21 20 20 17 18 21 21 21 24 25 27 26 22 28 31 28
2 1 6 11 13 13 10 8 7 7 7 7 4 8 7 12 13 15 18 20 21 23 23 24 26 27 26 24 25 25 22 22 23 21 20 19 20 19 18 19 21 22 23 27 31 21 25 21 29
2 1 11 11 13 10 9 7 7 8 9 8 11 11 8 12 18 17 17 19 20 22 23 24 26 28 27 25 25 22 21 22 23 22 22 22 19 18 19 19 20 19 24 26 29 25 17 23 27
6 5 11 15 13 10 8 6 8 8 10 10 4 6 6 19 18 16 16 19 20 22 23 25 26 27 27 27 29 26 24 20 24 24 26 26 24 18 19 19 19 20 22 21 25 23 21 20 31
3 3 12 10 10 8 5 7 7 9 9 9 15 7 6 16 16 14 14 20 22 24 26 27 27 27 26 23 26 29 31 28 24 24 26 27 27 27 22 20 21 21 21 20 21 20 18 17 29
2 5 9 8 12 10 8 10 7 10 13 17 9 12 9 12 14 16 19 22 23 25 26 27 28 28 27 23 25 31 33 32 30 26 27 27 28 28 28 23 22 22 19 18 15 14 10 10 9
4 7 8 5 11 11 7 10 10 10 12 13 11 12 11 12 17 21 25 26 29 32 32 31 31 30 27 24 24 27 28 34 31 32 30 26 25 28 25 24 23 23 22 18 15 17 9 3 9
4 6 14 11 12 12 13 11 4 13 11 9 10 10 12 15 17 19 20 21 22 23 25 28 29 29 28 25 26 25 24 33 33 32 32 28 27 26 25 23 22 20 20 18 15 15 10 2 10
14 10 8 9 7 12 12 12 14 12 8 9 10 10 11 14 16 16 18 19 22 24 25 26 26 25 24 22 23 25 26 31 30 31 34 31 32 29 26 23 20 19 18 16 13 11 8 6 8
18 14 11 11 10 11 12 11 12 12 9 9 9 10 11 12 13 14 16 17 19 21 23 24 24 24 23 23 25 28 25 27 29 30 32 32 31 31 30 25 21 19 15 14 13 9 8 6 8
12 17 14 9 9 14 15 10 1 6 6 7 8 9 10 11 11 11 14 15 17 19 22 23 23 24 23 22 23 25 26 26 29 33 30 33 29 28 29 29 24 17 15 11 10 9 4 6 7
18 16 12 7 8 9 13 10 6 4 9 9 9 8 8 9 9 11 12 14 16 18 19 20 20 22 21 20 22 22 24 23 26 28 32 38 34 31 27 27 26 21 15 12 8 7 5 2 3
7 10 8 4 5 5 4 7 6 8 11 10 8 7 7 7 8 10 11 12 13 14 16 17 19 21 21 21 20 19 23 23 24 24 30 32 39 36 30 27 26 26 18 14 10 7 6 2 1
6 7 7 6 1 4 9 8 7 7 9 9 7 6 6 6 7 8 9 10 12 13 14 17 19 20 20 19 18 18 19 21 23 22 24 27 34 39 35 30 28 24 22 14 10 8 5 1 4
10 7 6 8 2 8 8 9 10 9 10 8 7 6 5 4 4 5 7 9 10 12 13 15 18 21 19 20 20 18 18 19 22 23 27 25 28 34 40 37 31 27 25 18 12 8 6 5 5
3 6 10 9 3 4 8 10 11 10 9 8 7 5 4 2 2 4 6 8 9 10 12 14 17 20 20 18 20 19 18 19 19 24 27 28 27 27 35 41 37 32 30 24 15 7 6 2 5
7 11 8 6 1 4 8 9 9 11 9 8 7 6 3 1 3 5 6 6 7 9 11 13 17 19 19 18 18 18 18 18 20 23 25 27 30 28 29 32 38 36 33 29 22 11 6 3 7
3 4 9 5 7 1 8 9 13 11 9 8 6 4 3 1 2 5 8 8 8 9 10 11 15 17 17 19 18 19 17 18 23 25 25 27 28 30 30 27 33 35 32 29 28 22 12 7 10
5 1 6 10 10 3 6 4 14 16 14 12 11 9 6 2 1 5 8 9 8 8 8 9 13 15 16 17 18 19 19 19 20 20 22 23 26 30 32 29 26 31 34 31 28 25 16 9 5
4 3 4 2 2 2 8 5 1 16 16 17 14 10 7 3 1 4 6 8 6 7 8 9 11 13 15 16 18 19 20 19 18 21 22 24 26 29 32 32 29 27 29 31 28 29 24 21 10
13 9 7 3 1 4 8 7 8 11 21 17 15 12 9 5 1 2 5 5 5 6 7 8 10 12 14 15 17 18 19 19 20 23 23 24 25 26 30 34 32 29 26 27 28 26 25 22 21
3 7 2 2 3 4 3 5 11 15 4 17 17 13 10 6 3 1 3 4 5 6 7 8 10 12 14 15 16 17 19 18 18 20 21 22 24 25 28 30 31 29 27 26 26 27 26 25 22
11 3 3 5 4 1 3 7 4 2 8 5 13 12 10 7 4 2 2 3 4 5 7 8 9 10 13 14 15 16 17 17 17 18 20 19 21 22 24 26 27 28 26 26 24 21 25 25 24
5 6 3 4 2 2 6 5 5 8 10 12 13 12 11 8 6 5 4 2 3 4 6 7 8 10 11 12 13 15 16 18 18 18 18 19 20 22 22 22 24 26 26 26 26 24 23 25 25
2 5 3 2 4 5 5 6 9 13 18 17 17 16 12 10 8 7 5 3 2 2 4 6 7 9 10 11 12 13 15 16 16 17 19 20 21 22 23 22 21 24 24 24 25 25 24 22 24
5 4 4 3 3 4 4 4 2 14 18 21 19 16 14 11 9 8 7 5 3 1 3 5 6 8 9 11 12 12 14 15 16 17 19 20 21 23 22 23 22 21 23 23 24 24 23 23 22
7 6 9 4 6 2 2 8 1 3 11 16 16 15 13 11 10 10 8 7 4 1 2 4 6 8 10 11 12 13 14 15 16 19 21 22 23 24 21 22 21 20 19 21 23 23 24 23 21
Wind_Direction
338 318 285 241 125 69 84 90 71 81 79 62 56 71 69 44 19 40 344 350 343 344 346 348 347 351 350 348 353 0 350 345 347 350 351 360 357 358 351 346 349 346 339 306 277 261 242 231 217
339 318 237 271 138 121 88 93 78 64 82 89 59 90 69 65 27 41 358 344 344 344 348 349 350 352 350 349 349 354 356 356 350 344 345 345 345 343 351 340 337 340 340 323 288 270 250 236 219
326 309 35 21 35 87 112 84 100 86 94 145 115 55 39 355 25 358 349 345 345 346 349 350 352 354 354 349 349 350 349 350 350 350 358 352 349 337 339 333 333 335 330 329 304 270 258 238 220
302 173 94 81 90 74 96 83 103 122 88 65 112 92 94 36 6 356 347 346 347 349 351 353 354 356 357 357 352 349 350 348 350 346 349 350 349 340 335 336 339 333 326 334 323 273 252 236 221
267 170 100 95 99 93 82 72 81 85 74 69 104 87 82 34 11 357 352 352 354 352 354 355 355 358 359 2 360 357 358 354 354 351 348 348 342 339 334 336 336 340 342 336 326 315 261 289 200
141 225 128 117 112 103 88 68 79 79 88 77 99 95 77 31 11 0 358 1 1 360 359 358 358 358 359 1 5 8 4 358 358 357 351 342 340 333 326 326 331 337 342 339 328 340 279 223 210
92 82 103 128 126 119 99 61 69 70 66 45 32 76 103 23 7 5 9 9 8 6 4 3 1 0 1 3 2 14 10 1 358 358 358 355 350 340 327 330 323 333 341 340 335 335 340 281 208
109 99 132 136 148 120 115 88 67 53 57 86 1 31 45 5 6 13 17 18 17 12 9 7 5 3 5 6 2 9 14 8 359 355 352 352 351 348 341 335 328 330 337 341 343 344 344 333 218
289 154 130 135 141 131 140 115 82 87 74 61 67 57 30 12 17 25 24 21 18 15 13 8 6 5 4 7 7 13 15 8 5 356 351 351 346 346 344 337 334 335 336 333 333 330 352 16 73
358 122 111 103 112 129 122 116 126 122 101 91 77 61 42 33 29 27 22 17 14 11 8 6 5 5 5 7 1 7 11 9 7 8 4 352 347 345 345 342 342 340 341 341 339 338 322 53 142
19 112 125 102 103 118 113 116 140 118 87 58 69 52 43 39 35 32 28 23 16 11 9 7 4 3 5 8 6 5 10 13 7 8 7 1 353 347 348 346 346 345 339 341 343 333 358 47 122
110 102 103 108 102 131 116 102 74 63 91 79 73 66 54 46 40 32 27 21 17 15 11 7 6 5 5 9 11 9 8 6 9 7 8 10 3 357 349 345 346 344 340 343 349 -0 22 59 92
105 107 94 100 108 111 115 92 97 93 100 94 91 76 62 53 47 38 30 24 18 15 10 9 8 9 9 12 11 13 10 8 9 9 6 9 8 0 355 348 344 342 343 343 346 352 17 56 76
122 114 107 98 112 127 117 119 168 97 128 118 104 85 69 58 47 42 30 24 19 14 11 8 9 12 14 16 13 13 13 12 10 9 6 7 6 4 354 352 343 338 338 335 336 350 329 58 102
120 113 113 82 147 143 143 78 59 78 153 135 116 98 81 66 51 40 29 25 18 15 12 10 11 16 19 18 18 14 10 10 8 7 6 10 6 2 1 351 348 335 327 328 324 311 1 106 125
128 144 149 92 184 164 228 114 79 141 148 141 131 117 101 75 52 37 28 23 19 17 16 15 17 20 22 22 20 20 17 15 13 8 5 8 12 5 358 356 350 345 323 319 316 300 287 341 86
196 177 163 143 319 176 215 119 134 162 158 154 142 129 112 94 63 42 28 20 19 18 18 22 22 21 20 21 21 21 19 18 12 10 11 8 12 12 6 0 351 353 336 313 303 288 285 102 94
186 157 167 151 97 201 184 137 156 176 173 164 152 141 119 84 53 36 27 20 18 19 22 23 20 17 13 13 9 6 4 11 7 7 8 7 9 15 13 8 2 356 347 328 293 282 260 219 183
221 171 141 123 127 149 171 163 170 173 184 180 170 161 124 82 69 22 17 15 10 20 22 20 15 12 11 6 2 356 353 354 357 4 4 1 2 6 17 7 6 4 358 344 311 272 261 199 166
171 152 127 106 115 222 176 186 188 191 193 198 183 170 149 72 32 17 359 3 6 16 20 15 11 8 8 3 358 360 2 0 360 359 359 0 358 357 2 12 7 6 2 355 350 274 249 248 191
87 209 161 139 148 162 185 224 202 200 193 192 200 174 180 113 26 21 11 3 1 12 14 6 6 4 6 2 1 4 6 8 5 2 359 358 -0 2 356 3 8 5 6 353 357 346 266 230 214
171 105 139 141 181 231 204 286 197 193 203 201 189 194 176 162 56 10 1 1 359 4 6 0 -0 3 3 5 7 6 3 7 359 353 350 356 360 3 360 358 2 6 5 2 353 360 347 267 222
101 126 86 96 226 299 194 255 17 178 210 207 196 189 181 167 66 359 0 359 7 10 3 358 357 4 7 8 9 6 3 2 357 353 352 355 358 3 360 360 357 3 358 4 5 1 1 10 304
135 120 84 77 315 250 217 216 200 188 222 206 192 191 177 173 182 15 12 14 28 19 2 2 3 9 9 7 9 11 5 1 360 356 356 354 352 354 356 360 358 357 357 353 8 5 4 2 351
200 168 143 219 199 254 139 216 263 194 209 202 188 188 181 173 181 12 20 33 41 23 11 10 8 11 11 10 13 12 10 6 6 2 355 354 349 350 351 351 357 353 355 358 360 7 3 2 355
193 213 243 256 218 123 167 230 243 240 149 188 178 180 176 180 165 161 93 63 48 26 16 12 9 11 11 10 13 11 16 9 7 3 0 359 352 344 344 347 351 357 355 360 2 359 4 2 1
173 215 54 97 89 280 214 255 204 170 184 185 184 186 191 180 178 170 141 105 56 30 16 12 11 12 10 11 12 11 13 10 5 3 1 0 356 349 344 346 347 352 357 360 359 1 1 3 1
263 131 138 207 237 249 196 257 242 197 202 198 200 200 194 183 178 172 164 155 97 36 15 10 10 11 4 9 13 8 7 6 2 2 359 359 354 350 350 349 349 350 352 0 358 359 359 4 358
161 200 208 287 221 251 286 233 160 199 201 199 202 196 192 188 184 177 175 165 138 94 28 3 2 7 4 6 8 3 2 358 358 356 355 354 352 349 350 351 349 350 349 356 358 356 357 1 0
250 228 182 218 189 236 315 262 180 158 186 194 193 190 185 183 177 178 183 179 169 149 31 359 4 3 358 356 356 355 353 349 348 345 347 347 347 348 347 350 350 351 350 353 355 354 355 356 358